SCP
-0 -0 -0 -0 -0 -0 -0 -0 -0 -0 -0 -0 -0 -0 -0 -0 -0 -0 -0 -0 -0 -0 0 0 0 0 -0 -0 -0 -0 -0 -0 -0 -0 -0 -0 -0 -0 -0 -0 0 0 0
-0 -0 -0 -0 -0 -0 -0 -0 -0 -0 -0 -0 -0 -0 -0 -0 -0 -0 -0 -0 -0 -0 -0 -0 -0 0 0 -0 -0 -0 0 0 0 0 0 -0 -0 -0 -0 -0 -0 0 0
-0 -0 -0 -0 -0 -0 -0 -0 -0 -0 -0 -0 -0 -0 -0 -0 -0 -0 -0 -0 -0 -0 -0 -0 -0 0 0 0 0 0 0 0 0 0 -0 -0 0 -0 -0 -0 -0 -0 -0
-0 -0 -0 -0 -0 -0 -0 -0 -0 -0 -0 -0 -0 -0 -0 -0 -0 -0 -0 -0 -0 -0 -0 -0 -0 -0 -0 0 0 0 0 0 0 0 0 0 0 -0 -0 -0 -0 -0 0
-0 -0 -0 -0 -0 -0 -0 -0 0 0 -0 -0 -0 -0 -0 -0 -0 -0 -0 -0 -0 -0 -0 -0 -0 -0 -0 -0 -0 0 0 0 0 0 0 0 0 0 -0 -0 0 0 0
-0 -0 -0 -0 -0 -0 -0 -0 -0 0 0 -0 -0 -0 -0 -0 -0 -0 -0 -0 -0 -0 -0 -0 -0 0 0 0 0 0 0 0 0 0 0 0 0 -0 -0 -0 0 0 0
-0 -0 -0 -0 -0 -0 -0 -0 -0 -0 -0 -0 -0 -0 -0 -0 -0 -0 -0 -0 -0 -0 -0 -0 -0 0 0 0 0 0 0 0 0 0 0 0 0 0 0 0 0 0 0
-0 -0 -0 -0 0 0 0 0 0 -0 -0 -0 -0 -0 -0 -0 -0 -0 -0 -0 -0 -0 -0 -0 0 0 0 0 0 0 0 0 0 0 0 0 0 0 0 0 0 0 0
0 0 0 0 0 0 0 0 0 0 0 0 -0 -0 -0 -0 -0 -0 -0 -0 -0 0 0 0 0 0 0 0 0 0 0 0 0 0 0 0 0 0 0 0 0 0 0
0 0 0 0 0 0 0 0 0 0 0 0 0 0 0 0 -0 -0 0 0 0 0 0 0 0 0 0 0 0 0 0 0 0 0 0 0 0 0 0 0 0 0 0
0 0 0 0 0 0 0 0 0 0 0 0 0 0 0 0 0 0 0 0 0 0 0 0 0 0 0 0 0 0 0 0 0 0 0 0 0 0 0 0 0 0 0
0 0 0 0 0 0 0 0 0 0 0 0 0 0 0 0 0 0 0 0 0 0 0 -0 0 0 0 0 0 0 0 0 0 0 0 0 0 0 0 0 0 0 0
0 0 0 0 0 0 0 0 0 0 0 0 0 0 0 0 0 0 0 0 0 0 0 0 0 0 0 0 0 0 0 0 0 0 0 0 0 0 0 0 0 0 0
0 0 0 0 0 0 0 0 0 0 0 0 0 0 0 0 0 0 0 0 0 0 0 0 0 0 0 0 0 0 0 0 0 0 0 0 0 0 0 0 0 0 0
0 0 0 0 0 0 0 0 0 0 0 0 0 0 0 0 0 0 0 0 0 0 0 0 0 0 0 0 0 0 0 0 0 0 0 0 0 0 0 0 0 0 0
0 0 0 0 0 0 0 0 0 0 0 0 0 0 0 0 0 0 0 0 0 0 0 0 0 0 0 0 0 0 0 0 0 0 0 0 0 0 0 0 0 0 0
0 0 0 0 0 0 0 0 0 0 0 0 0 0 0 0 0 0 0 0 0 0 0 0 0 0 0 0 0 0 0 0 0 0 0 0 0 0 0 0 0 0 0
0 0 0 0 0 0 0 0 0 0 0 0 0 0 0 0 0 0 0 0 0 0 0 0 0 0 0 0 0 0 0 0 0 0 0 0 0 0 0 0 0 0 0
0 0 0 0 0 0 0 0 0 0 0 0 0 0 0 0 0 0 0 0 0 0 0 0 0 0 0 0 0 0 0 0 0 0 0 0 0 0 0 0 0 0 0
0 0 0 0 0 0 0 0 0 0 0 0 0 0 0 0 0 0 0 0 0 0 0 0 0 0 0 0 0 0 0 0 0 0 0 0 0 0 0 0 0 0 0
0 0 0 0 0 0 0 0 0 0 0 0 0 0 0 0 0 0 0 0 0 0 0 0 0 0 0 0 0 0 0 0 0 0 0 0 0 0 0 0 0 0 0
0 0 0 0 0 0 0 0 0 0 0 0 0 0 0 0 0 0 0 0 0 0 0 0 0 0 0 0 -0 -0 0 0 0 0 0 0 0 0 0 0 0 0 0
0 0 0 0 0 0 0 0 0 0 0 0 0 0 0 0 0 0 0 0 0 0 0 0 0 0 0 0 0 -0 0 0 0 0 0 0 0 0 0 0 -0 0 0
0 0 0 0 0 0 0 0 0 0 0 0 0 0 0 0 0 0 0 0 0 0 0 0 0 0 0 0 0 0 0 0 -0 0 0 0 0 0 0 0 0 0 0
0 0 0 0 0 0 0 0 0 0 0 0 0 0 0 0 0 0 0 0 0 0 0 0 0 0 0 0 0 0 0 0 0 0 0 0 0 0 0 0 0 -0 -0
0 0 0 0 0 0 0 0 0 0 0 0 0 0 0 0 0 0 0 0 0 0 0 0 0 0 0 0 0 0 0 0 0 0 0 0 0 0 0 -0 -0 -0 -0
Wind_Speed_500mb
21 20 23 23 25 26 22 21 20 18 16 16 16 15 17 18 21 22 22 20 19 18 19 18 18 14 16 14 15 15 16 18 17 19 20 17 18 17 18 23 24 21 18
19 21 24 23 24 26 23 21 20 19 16 14 12 17 16 15 19 20 20 14 13 14 15 16 16 15 12 14 18 15 16 19 20 26 23 12 15 18 20 21 20 23 20
23 22 27 22 22 23 23 21 18 15 14 13 14 16 13 13 18 21 21 18 15 12 13 14 14 13 12 13 14 13 16 21 29 33 24 17 10 12 12 14 17 20 23
25 17 27 22 19 20 20 19 16 16 15 12 12 12 10 13 17 21 20 16 13 11 12 14 14 14 12 11 10 12 16 21 24 20 23 17 10 9 8 8 8 9 13
27 14 22 23 16 13 16 17 15 14 12 12 14 13 8 9 15 18 19 16 13 12 13 14 14 13 11 8 9 13 18 25 23 18 8 4 14 10 8 7 5 4 4
26 19 21 24 23 18 14 15 16 13 11 12 12 11 9 7 12 16 18 18 13 11 12 13 14 13 10 9 10 15 23 27 20 12 10 9 6 10 8 7 4 2 1
27 23 20 22 21 17 13 12 13 13 13 12 9 9 12 5 9 13 17 19 16 14 14 14 13 12 11 11 12 15 22 21 15 8 5 5 7 8 8 8 6 4 3
24 20 20 24 25 22 17 14 12 12 12 11 9 12 8 2 5 11 16 17 18 16 16 14 14 14 11 10 11 12 16 16 7 6 5 7 8 9 10 9 8 6 4
16 18 13 25 25 24 21 17 13 11 11 10 8 12 6 2 5 7 11 13 16 18 19 18 18 16 13 11 9 7 7 5 2 6 5 8 9 11 12 12 11 9 8
13 12 14 15 21 17 18 19 17 15 14 13 12 10 5 5 2 4 12 12 14 16 20 22 21 18 15 12 9 6 3 5 6 9 8 10 11 13 14 15 14 14 13
20 26 22 27 31 31 22 21 18 18 18 18 17 13 10 10 6 2 8 9 13 22 24 22 21 20 15 11 8 6 5 5 6 10 9 10 11 13 15 15 15 15 16
18 22 24 16 26 36 34 21 23 21 20 20 19 16 11 10 10 5 6 6 10 15 25 29 26 23 26 22 17 13 10 10 8 11 9 11 12 12 12 13 13 15 15
20 19 26 26 22 30 39 27 22 22 20 21 18 19 18 19 7 5 5 5 7 9 15 24 31 32 31 30 28 25 20 19 17 17 16 15 15 15 16 16 15 14 16
19 25 27 29 32 27 32 42 31 39 35 29 25 21 19 21 13 8 9 8 10 7 9 13 23 28 31 35 35 34 30 24 21 22 23 20 19 18 18 19 20 20 12
17 19 21 26 31 32 31 38 41 36 41 31 26 25 19 18 17 12 12 14 15 6 3 8 16 26 30 31 35 35 33 30 26 22 20 19 21 23 23 22 21 21 22
19 20 19 22 23 36 40 38 41 36 32 29 27 23 19 17 13 9 9 8 4 7 10 8 9 19 23 26 29 33 32 30 26 26 23 22 21 21 22 23 25 25 26
25 25 22 25 29 36 40 38 37 32 25 21 22 21 13 11 10 8 10 8 7 9 9 9 11 15 22 24 22 22 23 22 24 21 23 25 24 25 24 26 26 27 27
28 28 23 24 28 36 40 40 37 32 26 21 18 17 17 15 12 11 9 7 4 2 1 8 12 15 14 20 21 17 18 16 16 20 20 19 20 22 26 27 26 29 29
24 20 18 21 30 37 46 38 36 30 24 20 17 15 16 13 15 14 16 14 10 8 9 8 3 9 17 20 21 18 19 22 16 14 21 19 18 15 14 15 17 20 24
13 11 18 25 36 45 41 41 40 35 31 28 25 25 26 24 19 15 11 6 3 5 11 10 14 19 23 27 27 23 20 24 19 27 31 21 18 17 17 19 21 22 23
14 18 26 34 47 52 53 47 48 41 38 36 34 26 22 18 15 11 16 20 21 20 27 26 25 26 26 31 29 22 19 18 16 37 23 23 22 28 22 25 32 37 37
24 28 37 50 59 56 61 51 45 41 39 33 28 27 24 25 27 26 25 26 27 25 24 27 30 33 37 42 41 22 12 12 10 8 18 27 39 28 42 46 50 52 45
34 38 44 54 59 53 52 48 47 45 41 41 39 41 38 33 30 26 24 23 23 23 26 28 31 35 39 38 42 33 16 14 51 15 24 36 33 54 48 59 62 58 58
42 43 51 53 53 48 48 49 46 46 51 48 45 41 38 31 27 23 21 20 21 23 25 31 34 37 38 40 36 34 24 26 24 33 40 59 49 62 67 69 69 70 69
47 53 54 54 48 46 45 42 48 55 53 49 44 38 33 26 21 19 19 22 24 27 30 32 34 37 40 42 42 43 41 37 26 42 66 80 84 78 78 77 80 78 74
49 47 47 46 46 44 46 51 51 50 49 45 38 30 24 18 16 16 17 21 25 27 29 33 35 37 40 41 43 43 44 45 48 50 68 79 85 96 93 92 84 67 62
Wind_Direction_500mb
192 177 163 152 148 148 144 135 129 124 122 119 113 102 98 76 53 38 31 37 41 45 51 55 63 69 63 64 81 71 63 65 61 59 56 55 79 80 72 64 67 58 56
201 187 170 156 152 151 150 145 140 138 130 122 115 111 108 66 43 30 25 29 37 51 55 55 56 64 57 51 83 74 69 64 63 58 47 48 69 80 74 66 67 63 56
178 185 175 163 158 154 156 152 146 137 127 120 118 121 110 67 47 37 41 50 58 58 52 51 50 52 53 58 72 77 75 74 83 76 46 24 70 70 68 64 60 65 64
165 180 175 166 164 167 163 159 154 145 144 141 133 131 100 71 49 38 39 38 45 49 44 41 40 40 44 53 71 81 82 85 79 87 83 42 54 69 56 54 51 49 64
155 191 177 166 165 183 174 169 164 154 150 149 150 153 125 91 42 36 39 35 32 37 35 30 32 37 40 48 64 85 92 98 81 48 90 44 34 57 46 43 47 44 48
151 178 195 174 178 191 186 170 168 170 161 154 151 150 145 83 41 35 35 33 43 52 44 36 35 35 38 58 83 97 106 100 87 108 55 51 47 49 38 30 50 55 86
147 185 207 188 174 188 183 180 182 188 177 166 158 160 157 85 48 35 27 27 35 36 31 30 38 50 55 61 80 106 122 122 127 163 238 6 20 30 32 36 29 13 328
157 193 196 189 180 178 181 195 185 191 187 181 172 169 169 90 34 35 20 23 29 32 31 29 33 39 42 58 82 107 128 128 149 116 295 21 7 5 8 15 2 354 348
177 173 176 193 190 192 195 199 204 200 193 193 186 180 191 295 56 6 9 23 27 26 27 25 29 32 33 40 56 85 133 173 75 156 339 360 354 355 358 0 355 347 341
147 158 175 177 195 191 204 214 211 202 194 192 204 208 245 281 9 351 341 25 21 22 21 21 23 25 25 24 25 21 9 322 322 299 352 351 350 350 351 353 351 345 340
179 172 181 207 191 178 203 213 214 211 209 210 217 211 228 226 194 54 333 42 24 11 6 7 15 17 13 10 359 340 336 312 321 309 335 339 341 341 340 346 348 345 340
216 202 202 207 203 190 191 195 218 218 221 224 225 219 218 206 136 95 24 23 6 5 6 1 4 13 8 358 345 332 318 302 300 297 311 319 325 324 323 327 337 336 337
223 221 214 213 217 206 200 184 206 214 217 217 215 209 193 194 166 170 304 356 331 344 4 359 355 359 6 3 349 335 325 314 308 302 299 305 310 311 310 310 310 318 321
229 231 231 222 225 216 206 194 194 202 210 196 189 183 193 200 206 207 223 256 273 318 340 349 342 349 357 357 357 348 330 319 313 308 306 305 301 300 300 303 304 303 318
233 240 238 235 224 223 205 199 198 203 208 204 199 197 200 203 212 219 236 261 263 262 349 344 343 335 338 342 342 341 337 322 311 305 301 300 297 296 296 295 294 294 297
249 252 253 241 217 214 209 198 200 208 211 212 215 228 225 214 221 263 288 230 193 222 333 327 342 329 324 331 333 332 333 328 315 304 295 295 292 293 289 288 290 291 291
271 265 249 240 218 206 199 197 198 200 210 211 211 224 220 227 228 266 267 244 266 283 326 302 319 319 317 325 342 346 340 345 341 330 307 294 300 301 300 298 297 292 286
265 265 252 218 206 189 195 194 192 185 186 185 197 205 210 215 231 243 240 261 186 231 218 287 299 304 329 2 2 2 4 360 345 342 343 330 317 311 307 306 301 295 294
258 248 229 198 184 189 182 192 184 177 177 176 178 187 171 182 163 150 150 163 189 228 257 278 351 6 11 8 11 13 9 21 7 29 30 22 17 8 354 337 324 307 298
244 202 169 170 176 177 174 182 177 173 169 168 166 160 159 164 166 170 165 172 160 85 75 53 32 22 16 18 22 33 43 18 34 15 4 15 5 352 350 348 349 342 332
183 175 168 169 171 179 162 162 164 162 160 157 154 149 151 145 139 130 109 97 86 73 58 47 32 16 5 7 8 41 22 346 4 359 8 357 347 350 343 346 341 336 334
178 175 174 174 173 177 174 171 167 165 154 150 141 138 129 122 113 104 94 81 67 57 46 31 21 16 8 5 12 16 5 320 324 1 342 325 320 327 325 321 324 326 327
177 175 174 168 164 164 170 170 164 155 146 138 135 128 119 113 104 93 79 63 48 32 23 18 14 11 16 13 14 22 358 338 332 209 312 306 304 312 314 315 317 319 320
175 172 170 166 164 164 164 161 160 158 147 136 130 121 115 106 94 79 62 45 32 24 15 14 10 8 3 5 3 11 7 345 333 318 304 307 310 309 313 317 317 317 321
175 172 173 171 165 162 167 168 162 150 141 135 129 126 116 102 87 66 46 31 22 18 16 12 9 7 5 1 359 352 346 342 333 311 312 315 314 317 317 317 318 320 322
177 175 173 171 168 168 162 158 155 150 142 136 126 120 109 95 73 51 32 20 15 10 8 6 4 1 1 357 352 349 345 340 330 322 314 315 314 314 314 315 318 322 320
Wind_Speed_850mb
21 20 23 23 25 26 22 21 20 18 16 16 16 15 17 18 21 22 22 20 19 18 19 18 18 14 16 14 15 15 16 18 17 19 20 17 18 17 18 23 24 21 18
19 21 24 23 24 26 23 21 20 19 16 14 12 17 16 15 19 20 20 14 13 14 15 16 16 15 12 14 18 15 16 19 20 26 23 12 15 18 20 21 20 23 20
23 22 27 22 22 23 23 21 18 15 14 13 14 16 13 13 18 21 21 18 15 12 13 14 14 13 12 13 14 13 16 21 29 33 24 17 10 12 12 14 17 20 23
25 17 27 22 19 20 20 19 16 16 15 12 12 12 10 13 17 21 20 16 13 11 12 14 14 14 12 11 10 12 16 21 24 20 23 17 10 9 8 8 8 9 13
27 14 22 23 16 13 16 17 15 14 12 12 14 13 8 9 15 18 19 16 13 12 13 14 14 13 11 8 9 13 18 25 23 18 8 4 14 10 8 7 5 4 4
26 19 21 24 23 18 14 15 16 13 11 12 12 11 9 7 12 16 18 18 13 11 12 13 14 13 10 9 10 15 23 27 20 12 10 9 6 10 8 7 4 2 1
27 23 20 22 21 17 13 12 13 13 13 12 9 9 12 5 9 13 17 19 16 14 14 14 13 12 11 11 12 15 22 21 15 8 5 5 7 8 8 8 6 4 3
24 20 20 24 25 22 17 14 12 12 12 11 9 12 8 2 5 11 16 17 18 16 16 14 14 14 11 10 11 12 16 16 7 6 5 7 8 9 10 9 8 6 4
16 18 13 25 25 24 21 17 13 11 11 10 8 12 6 2 5 7 11 13 16 18 19 18 18 16 13 11 9 7 7 5 2 6 5 8 9 11 12 12 11 9 8
13 12 14 15 21 17 18 19 17 15 14 13 12 10 5 5 2 4 12 12 14 16 20 22 21 18 15 12 9 6 3 5 6 9 8 10 11 13 14 15 14 14 13
20 26 22 27 31 31 22 21 18 18 18 18 17 13 10 10 6 2 8 9 13 22 24 22 21 20 15 11 8 6 5 5 6 10 9 10 11 13 15 15 15 15 16
18 22 24 16 26 36 34 21 23 21 20 20 19 16 11 10 10 5 6 6 10 15 25 29 26 23 26 22 17 13 10 10 8 11 9 11 12 12 12 13 13 15 15
20 19 26 26 22 30 39 27 22 22 20 21 18 19 18 19 7 5 5 5 7 9 15 24 31 32 31 30 28 25 20 19 17 17 16 15 15 15 16 16 15 14 16
19 25 27 29 32 27 32 42 31 39 35 29 25 21 19 21 13 8 9 8 10 7 9 13 23 28 31 35 35 34 30 24 21 22 23 20 19 18 18 19 20 20 12
17 19 21 26 31 32 31 38 41 36 41 31 26 25 19 18 17 12 12 14 15 6 3 8 16 26 30 31 35 35 33 30 26 22 20 19 21 23 23 22 21 21 22
19 20 19 22 23 36 40 38 41 36 32 29 27 23 19 17 13 9 9 8 4 7 10 8 9 19 23 26 29 33 32 30 26 26 23 22 21 21 22 23 25 25 26
25 25 22 25 29 36 40 38 37 32 25 21 22 21 13 11 10 8 10 8 7 9 9 9 11 15 22 24 22 22 23 22 24 21 23 25 24 25 24 26 26 27 27
28 28 23 24 28 36 40 40 37 32 26 21 18 17 17 15 12 11 9 7 4 2 1 8 12 15 14 20 21 17 18 16 16 20 20 19 20 22 26 27 26 29 29
24 20 18 21 30 37 46 38 36 30 24 20 17 15 16 13 15 14 16 14 10 8 9 8 3 9 17 20 21 18 19 22 16 14 21 19 18 15 14 15 17 20 24
13 11 18 25 36 45 41 41 40 35 31 28 25 25 26 24 19 15 11 6 3 5 11 10 14 19 23 27 27 23 20 24 19 27 31 21 18 17 17 19 21 22 23
14 18 26 34 47 52 53 47 48 41 38 36 34 26 22 18 15 11 16 20 21 20 27 26 25 26 26 31 29 22 19 18 16 37 23 23 22 28 22 25 32 37 37
24 28 37 50 59 56 61 51 45 41 39 33 28 27 24 25 27 26 25 26 27 25 24 27 30 33 37 42 41 22 12 12 10 8 18 27 39 28 42 46 50 52 45
34 38 44 54 59 53 52 48 47 45 41 41 39 41 38 33 30 26 24 23 23 23 26 28 31 35 39 38 42 33 16 14 51 15 24 36 33 54 48 59 62 58 58
42 43 51 53 53 48 48 49 46 46 51 48 45 41 38 31 27 23 21 20 21 23 25 31 34 37 38 40 36 34 24 26 24 33 40 59 49 62 67 69 69 70 69
47 53 54 54 48 46 45 42 48 55 53 49 44 38 33 26 21 19 19 22 24 27 30 32 34 37 40 42 42 43 41 37 26 42 66 80 84 78 78 77 80 78 74
49 47 47 46 46 44 46 51 51 50 49 45 38 30 24 18 16 16 17 21 25 27 29 33 35 37 40 41 43 43 44 45 48 50 68 79 85 96 93 92 84 67 62
Wind_Direction_850mb
192 177 163 152 148 148 144 135 129 124 122 119 113 102 98 76 53 38 31 37 41 45 51 55 63 69 63 64 81 71 63 65 61 59 56 55 79 80 72 64 67 58 56
201 187 170 156 152 151 150 145 140 138 130 122 115 111 108 66 43 30 25 29 37 51 55 55 56 64 57 51 83 74 69 64 63 58 47 48 69 80 74 66 67 63 56
178 185 175 163 158 154 156 152 146 137 127 120 118 121 110 67 47 37 41 50 58 58 52 51 50 52 53 58 72 77 75 74 83 76 46 24 70 70 68 64 60 65 64
165 180 175 166 164 167 163 159 154 145 144 141 133 131 100 71 49 38 39 38 45 49 44 41 40 40 44 53 71 81 82 85 79 87 83 42 54 69 56 54 51 49 64
155 191 177 166 165 183 174 169 164 154 150 149 150 153 125 91 42 36 39 35 32 37 35 30 32 37 40 48 64 85 92 98 81 48 90 44 34 57 46 43 47 44 48
151 178 195 174 178 191 186 170 168 170 161 154 151 150 145 83 41 35 35 33 43 52 44 36 35 35 38 58 83 97 106 100 87 108 55 51 47 49 38 30 50 55 86
147 185 207 188 174 188 183 180 182 188 177 166 158 160 157 85 48 35 27 27 35 36 31 30 38 50 55 61 80 106 122 122 127 163 238 6 20 30 32 36 29 13 328
157 193 196 189 180 178 181 195 185 191 187 181 172 169 169 90 34 35 20 23 29 32 31 29 33 39 42 58 82 107 128 128 149 116 295 21 7 5 8 15 2 354 348
177 173 176 193 190 192 195 199 204 200 193 193 186 180 191 295 56 6 9 23 27 26 27 25 29 32 33 40 56 85 133 173 75 156 339 360 354 355 358 0 355 347 341
147 158 175 177 195 191 204 214 211 202 194 192 204 208 245 281 9 351 341 25 21 22 21 21 23 25 25 24 25 21 9 322 322 299 352 351 350 350 351 353 351 345 340
179 172 181 207 191 178 203 213 214 211 209 210 217 211 228 226 194 54 333 42 24 11 6 7 15 17 13 10 359 340 336 312 321 309 335 339 341 341 340 346 348 345 340
216 202 202 207 203 190 191 195 218 218 221 224 225 219 218 206 136 95 24 23 6 5 6 1 4 13 8 358 345 332 318 302 300 297 311 319 325 324 323 327 337 336 337
223 221 214 213 217 206 200 184 206 214 217 217 215 209 193 194 166 170 304 356 331 344 4 359 355 359 6 3 349 335 325 314 308 302 299 305 310 311 310 310 310 318 321
229 231 231 222 225 216 206 194 194 202 210 196 189 183 193 200 206 207 223 256 273 318 340 349 342 349 357 357 357 348 330 319 313 308 306 305 301 300 300 303 304 303 318
233 240 238 235 224 223 205 199 198 203 208 204 199 197 200 203 212 219 236 261 263 262 349 344 343 335 338 342 342 341 337 322 311 305 301 300 297 296 296 295 294 294 297
249 252 253 241 217 214 209 198 200 208 211 212 215 228 225 214 221 263 288 230 193 222 333 327 342 329 324 331 333 332 333 328 315 304 295 295 292 293 289 288 290 291 291
271 265 249 240 218 206 199 197 198 200 210 211 211 224 220 227 228 266 267 244 266 283 326 302 319 319 317 325 342 346 340 345 341 330 307 294 300 301 300 298 297 292 286
265 265 252 218 206 189 195 194 192 185 186 185 197 205 210 215 231 243 240 261 186 231 218 287 299 304 329 2 2 2 4 360 345 342 343 330 317 311 307 306 301 295 294
258 248 229 198 184 189 182 192 184 177 177 176 178 187 171 182 163 150 150 163 189 228 257 278 351 6 11 8 11 13 9 21 7 29 30 22 17 8 354 337 324 307 298
244 202 169 170 176 177 174 182 177 173 169 168 166 160 159 164 166 170 165 172 160 85 75 53 32 22 16 18 22 33 43 18 34 15 4 15 5 352 350 348 349 342 332
183 175 168 169 171 179 162 162 164 162 160 157 154 149 151 145 139 130 109 97 86 73 58 47 32 16 5 7 8 41 22 346 4 359 8 357 347 350 343 346 341 336 334
178 175 174 174 173 177 174 171 167 165 154 150 141 138 129 122 113 104 94 81 67 57 46 31 21 16 8 5 12 16 5 320 324 1 342 325 320 327 325 321 324 326 327
177 175 174 168 164 164 170 170 164 155 146 138 135 128 119 113 104 93 79 63 48 32 23 18 14 11 16 13 14 22 358 338 332 209 312 306 304 312 314 315 317 319 320
175 172 170 166 164 164 164 161 160 158 147 136 130 121 115 106 94 79 62 45 32 24 15 14 10 8 3 5 3 11 7 345 333 318 304 307 310 309 313 317 317 317 321
175 172 173 171 165 162 167 168 162 150 141 135 129 126 116 102 87 66 46 31 22 18 16 12 9 7 5 1 359 352 346 342 333 311 312 315 314 317 317 317 318 320 322
177 175 173 171 168 168 162 158 155 150 142 136 126 120 109 95 73 51 32 20 15 10 8 6 4 1 1 357 352 349 345 340 330 322 314 315 314 314 314 315 318 322 320